[[{"header":{"parameterUnit":"m.s-1","parameterCategory":1,"la1":30.2991,"la2":30.254,"lo1":-89.0895,"lo2":-89.0444,"dy":0.0017,"dx":0.0017,"nx":28,"ny":28,"refTime":"2025-03-05T09:00:00:Z","depth":0,"parameterNumber":2,"parameterNumberName":"U-component_of_WINDS"},"data":[0,0,0,0,0,0,0,0,0,0,0,0,0,0,0,0,0,0,0,0,0,0,0,0,0,0,0,0,0,0,0,0,0,0,0,0,0,0,0,0,0,0,0,0,0,0,0,0,0,0,0,0,0,0,0,0,0,0,7.9563,7.9565,0,7.9702,7.9703,7.9705,7.9651,7.9648,7.9645,7.9642,7.9786,7.9792,7.9799,0,0,0,0,0,0,0,0,0,0,0,0,0,7.9257,7.9263,7.9563,7.9565,7.9567,7.9701,7.9703,7.9705,7.9652,7.9648,7.9644,7.964,7.9783,7.9791,7.98,0,0,0,0,0,0,0,0,0,0,0,0,0,7.9392,7.9265,7.9563,7.9556,7.9557,7.9701,7.9703,7.9706,7.9653,7.9648,7.9643,7.9638,7.9781,7.9791,7.9801,7.996,0,0,7.9832,7.9837,0,0,0,0,0,0,0,0,7.9385,7.9403,7.9555,7.9557,7.9558,7.9654,7.9648,7.9791,7.9654,7.9616,7.9642,7.9636,7.9746,7.9759,7.9795,7.9967,7.9973,7.9833,7.9839,7.9844,7.9846,0,0,0,0,0,0,0,7.9375,7.9397,7.9618,7.9558,7.9559,7.9548,7.9562,7.9675,7.9707,7.9619,7.9616,7.9633,7.9746,7.9786,7.9798,7.9975,7.9833,7.9842,7.9848,7.9852,8.0289,8.0295,0,0,0,0,0,0,7.9365,7.939,7.9614,7.9622,7.9458,7.9557,7.9573,7.9628,7.9705,7.9712,7.9637,7.963,7.977,7.9786,7.9803,7.9998,7.9844,7.9853,7.9859,8.0284,8.0291,8.0297,0,0,0,0,0,0,7.9359,7.9385,7.9608,7.9505,7.9533,7.9567,7.963,7.9633,7.9673,7.9718,7.9724,7.9671,7.9767,7.9789,7.9923,8.0002,7.9858,7.9867,8.0278,8.0286,8.0294,8.0387,0,0,0,0,0,0,7.935,7.9383,7.9443,7.9507,7.9538,7.9724,7.9635,7.964,7.9691,7.9683,7.9752,7.9759,7.9765,7.9908,7.9933,8.0014,7.9875,8.0271,8.0281,8.0291,8.0377,8.0398,8.0415,0,0,0,0,0,7.9339,7.9464,7.9447,7.9474,7.9614,7.9729,7.9747,7.975,7.9697,7.9759,7.9788,7.9757,7.9989,7.9922,7.995,8.0035,8.0266,8.0278,8.029,8.0369,8.0394,8.0415,0,0,0,0,0,0,7.9409,7.9472,7.9453,7.9602,7.966,7.9719,7.9797,7.9776,7.9851,7.9841,7.9843,7.9859,7.9998,8.0029,7.9953,8.0195,8.012,8.0138,8.017,8.0194,8.0212,8.0203,7.9884,0,0,0,0,0,7.9441,7.9528,7.9579,7.9705,7.9736,7.9761,7.9811,7.981,7.987,7.9895,7.9934,7.9995,8.0082,8.0139,8.0222,8.0381,8.0398,8.0454,8.0473,8.0488,8.0505,8.0595,8.0622,8.0337,8.0337,8.0337,0,0,7.9509,7.9555,7.9609,7.9721,7.9765,7.9858,7.9782,7.9882,7.9951,7.991,8.004,8.0071,8.0139,8.0288,8.0355,8.0318,8.0587,8.0504,8.0516,8.0524,8.0611,8.0638,8.0662,8.0345,8.0344,8.0343,0,0,7.9681,7.9723,7.9834,7.9881,7.9951,7.9967,7.9994,8.0057,8.0077,8.0206,8.0179,8.0261,8.041,8.0461,8.0507,8.0702,8.0677,8.0728,8.0828,8.0916,8.0939,8.0959,8.1031,8.1057,8.0744,8.0745,8.0745,0,7.9757,7.9894,7.9894,7.9998,8.0049,8.0016,8.013,8.0176,8.0269,8.0306,8.0263,8.0452,8.0496,8.0657,8.0705,8.0742,8.0775,8.0721,8.0935,8.0955,8.0974,8.1043,8.107,8.0751,8.075,8.0749,8.0749,0,7.9986,8.0081,8.0163,8.0254,8.0314,8.0423,8.0441,8.0503,8.0496,8.0518,8.0653,8.0704,8.0798,8.0836,8.083,8.0998,8.0974,8.0933,8.0857,8.1007,8.1072,8.1099,8.0759,8.0757,8.0755,8.0754,0,0,8.0205,8.0297,8.0327,8.0369,8.0445,8.0519,8.0627,8.0719,8.0773,8.0838,8.0931,8.1059,8.1023,8.1075,8.1075,8.1152,8.1307,8.1103,8.1104,8.1141,8.15,8.1531,8.1562,8.1291,8.1296,8.13,8.1495,0,8.0385,8.0574,8.0579,8.0752,8.0842,8.0814,8.0908,8.0966,8.099,8.1071,8.1098,8.119,8.1134,8.1166,8.124,8.1272,8.138,8.1258,8.1379,8.1384,8.1365,8.1595,8.1629,8.181,8.152,8.1524,8.1527,0,8.062,8.0694,8.0877,8.0942,8.098,8.1065,8.1151,8.1228,8.1294,8.1306,8.1366,8.1355,8.1468,8.1388,8.1545,8.1462,8.1512,8.1536,8.1543,8.1556,8.1466,8.1617,8.1868,8.1896,8.1567,8.1564,8.1561,0,8.0766,8.0911,8.104,8.1077,8.1155,8.1216,8.1252,8.1313,8.1369,8.1444,8.1481,8.1569,8.1618,8.1687,8.1701,8.1641,8.186,8.178,8.1876,8.1876,8.1925,8.1922,8.2189,8.1953,8.1953,8.1952,8.1952,0,8.0968,8.1081,8.1107,8.1186,8.1314,8.1319,8.1446,8.1477,8.1532,8.1619,8.1599,8.1682,8.1694,8.1781,8.1792,8.1923,8.1944,8.1959,8.1962,8.1963,8.1961,8.1997,8.1986,8.1959,8.1958,8.1956,8.1955,0,8.1152,8.1173,8.1313,8.1376,8.1395,8.1487,8.1542,8.1619,8.1641,8.1752,8.1778,8.1814,8.1914,8.1935,8.2054,8.2062,8.2218,8.2207,8.2196,8.2196,8.2292,8.2284,8.2594,8.2636,8.2369,8.2372,8.2374,0,8.1281,8.1368,8.1441,8.1498,8.1537,8.1628,8.1685,8.1694,8.1755,8.1838,8.1907,8.2005,8.2084,8.2247,8.2284,8.2376,8.2368,8.2471,8.2382,8.2382,8.2374,8.237,8.238,8.2488,8.2491,8.2494,8.2495,0,8.1509,8.1515,8.1598,8.1686,8.1755,8.1824,8.1891,8.1938,8.1957,8.2027,8.2129,8.2191,8.2313,8.2412,8.2504,8.2543,8.2524,8.2523,8.2551,8.2554,8.2545,8.2554,8.2246,8.2516,8.2514,8.2513,8.2511,8.2511,8.1672,8.1749,8.1813,8.1907,8.1958,8.2021,8.2098,8.213,8.2215,8.2315,8.2316,8.2429,8.2495,8.2617,8.2662,8.2752,8.272,8.2759,8.277,8.278,8.279,8.2529,8.2768,8.2768,8.2767,8.2767,8.2766,0,8.1901,8.1941,8.2027,8.2121,8.2196,8.217,8.2242,8.2307,8.2407,8.247,8.2549,8.2668,8.2765,8.2811,8.2907,8.297,8.2964,8.2995,8.2992,8.3002,8.2812,8.2779,8.2999,8.2999,8.2999,8.2999,8.2999,8.2999,8.2029,8.216,8.2175,8.2331,8.2371,8.2481,8.2526,8.2584,8.2635,8.2769,8.285,8.2878,8.2936,8.3036,8.3125,8.3136,8.3173,8.321,8.3217,8.3039,8.3015,8.2993,8.2963,8.3217,8.3217,8.34,8.3402,8.3403]},{"header":{"parameterUnit":"m.s-1","parameterCategory":1,"la1":30.2991,"la2":30.254,"lo1":-89.0895,"lo2":-89.0444,"dy":0.0017,"dx":0.0017,"nx":28,"ny":28,"refTime":"2025-03-05T09:00:00:Z","depth":0,"parameterNumber":3,"parameterNumberName":"V-component_of_WINDS"},"data":[0,0,0,0,0,0,0,0,0,0,0,0,0,0,0,0,0,0,0,0,0,0,0,0,0,0,0,0,0,0,0,0,0,0,0,0,0,0,0,0,0,0,0,0,0,0,0,0,0,0,0,0,0,0,0,0,0,0,-2.4941,-2.4942,0,-2.501,-2.5011,-2.5011,-2.505,-2.505,-2.505,-2.505,-2.5118,-2.512,-2.5122,0,0,0,0,0,0,0,0,0,0,0,0,0,-2.4844,-2.4845,-2.4941,-2.4942,-2.4943,-2.501,-2.5011,-2.5012,-2.505,-2.505,-2.505,-2.5051,-2.5118,-2.512,-2.5122,0,0,0,0,0,0,0,0,0,0,0,0,0,-2.4896,-2.4846,-2.4941,-2.497,-2.4974,-2.501,-2.5011,-2.5012,-2.505,-2.505,-2.505,-2.5051,-2.5117,-2.512,-2.5122,-2.5133,0,0,-2.513,-2.5131,0,0,0,0,0,0,0,0,-2.4893,-2.49,-2.4965,-2.4968,-2.4972,-2.5022,-2.5001,-2.5053,-2.505,-2.5021,-2.505,-2.5051,-2.5086,-2.5091,-2.5103,-2.5137,-2.514,-2.513,-2.5131,-2.5133,-2.5133,0,0,0,0,0,0,0,-2.489,-2.4897,-2.4968,-2.4966,-2.497,-2.498,-2.4988,-2.5011,-2.5051,-2.5023,-2.5026,-2.5034,-2.5088,-2.5101,-2.5105,-2.5141,-2.513,-2.5132,-2.5134,-2.5135,-2.5189,-2.5189,0,0,0,0,0,0,-2.4882,-2.4894,-2.4966,-2.497,-2.4933,-2.4982,-2.499,-2.5006,-2.5051,-2.5058,-2.5034,-2.5036,-2.5096,-2.5102,-2.5108,-2.5126,-2.5133,-2.5135,-2.5136,-2.5189,-2.5189,-2.5189,0,0,0,0,0,0,-2.4879,-2.4888,-2.4963,-2.4933,-2.4943,-2.4983,-2.5,-2.5007,-2.502,-2.5059,-2.5066,-2.504,-2.5097,-2.5104,-2.5127,-2.5128,-2.5136,-2.5138,-2.5189,-2.5189,-2.5189,-2.516,0,0,0,0,0,0,-2.4876,-2.4887,-2.4891,-2.4933,-2.4945,-2.4982,-2.5,-2.5008,-2.5024,-2.5027,-2.5067,-2.5073,-2.5097,-2.5124,-2.513,-2.5132,-2.514,-2.5189,-2.5189,-2.5189,-2.5161,-2.5159,-2.5157,0,0,0,0,0,-2.4873,-2.4879,-2.4891,-2.49,-2.4952,-2.4982,-2.4989,-2.5017,-2.5024,-2.5029,-2.5055,-2.5072,-2.5127,-2.5126,-2.5133,-2.5136,-2.5189,-2.5189,-2.5189,-2.5162,-2.516,-2.5157,0,0,0,0,0,0,-2.4835,-2.4885,-2.4899,-2.4919,-2.4946,-2.4988,-2.4996,-2.5013,-2.5038,-2.504,-2.5073,-2.5082,-2.5102,-2.5122,-2.5119,-2.5151,-2.516,-2.5162,-2.5137,-2.5135,-2.5133,-2.5128,-2.5142,0,0,0,0,0,-2.483,-2.485,-2.4893,-2.4907,-2.492,-2.4955,-2.497,-2.4989,-2.5018,-2.503,-2.5057,-2.5084,-2.5108,-2.5122,-2.5146,-2.5165,-2.5174,-2.517,-2.5168,-2.5167,-2.5167,-2.518,-2.5179,-2.5189,-2.5189,-2.5189,0,0,-2.4817,-2.4847,-2.4858,-2.49,-2.4923,-2.4944,-2.4964,-2.4985,-2.5001,-2.5033,-2.5057,-2.5078,-2.511,-2.5132,-2.5142,-2.5148,-2.5167,-2.5166,-2.5165,-2.5166,-2.518,-2.5179,-2.5178,-2.5189,-2.5189,-2.5189,0,0,-2.4806,-2.4831,-2.4846,-2.487,-2.4905,-2.4929,-2.4933,-2.4973,-2.4989,-2.5014,-2.5039,-2.5058,-2.5098,-2.5121,-2.5137,-2.5138,-2.5155,-2.5145,-2.5134,-2.5146,-2.5146,-2.5145,-2.5146,-2.5146,-2.5145,-2.5145,-2.5145,0,-2.4787,-2.482,-2.4851,-2.4872,-2.489,-2.4921,-2.4937,-2.4958,-2.4999,-2.5011,-2.5017,-2.5069,-2.5093,-2.5121,-2.5122,-2.5134,-2.514,-2.514,-2.5143,-2.5143,-2.5143,-2.5145,-2.5145,-2.5144,-2.5144,-2.5144,-2.5144,0,-2.4794,-2.4817,-2.4825,-2.4866,-2.4885,-2.4902,-2.4937,-2.4953,-2.4972,-2.4995,-2.5021,-2.5052,-2.5083,-2.5091,-2.5109,-2.5122,-2.5125,-2.5137,-2.5147,-2.514,-2.5142,-2.5143,-2.5142,-2.5142,-2.5143,-2.5143,0,0,-2.476,-2.482,-2.4822,-2.4842,-2.4885,-2.4903,-2.4923,-2.4955,-2.4968,-2.4996,-2.5014,-2.5048,-2.506,-2.5079,-2.51,-2.511,-2.5111,-2.5121,-2.5123,-2.5119,-2.5129,-2.512,-2.512,-2.5123,-2.5123,-2.5123,-2.5126,0,-2.4756,-2.4793,-2.4824,-2.485,-2.4872,-2.4903,-2.4921,-2.4949,-2.4972,-2.4994,-2.5019,-2.5044,-2.5057,-2.5069,-2.5081,-2.5108,-2.5113,-2.5108,-2.514,-2.5141,-2.5131,-2.5121,-2.5111,-2.5113,-2.5127,-2.5127,-2.5128,0,-2.4755,-2.4783,-2.4812,-2.4855,-2.4865,-2.488,-2.4913,-2.4934,-2.4967,-2.4984,-2.5006,-2.5029,-2.5052,-2.5061,-2.5093,-2.5089,-2.5104,-2.512,-2.5121,-2.5125,-2.5133,-2.5125,-2.5114,-2.5114,-2.5129,-2.5129,-2.5129,0,-2.4728,-2.4773,-2.4797,-2.4813,-2.4863,-2.4873,-2.4894,-2.4928,-2.4946,-2.4975,-2.4987,-2.5018,-2.5034,-2.5058,-2.5088,-2.5092,-2.5118,-2.5129,-2.5133,-2.5132,-2.5136,-2.5136,-2.5128,-2.5146,-2.5146,-2.5146,-2.5146,0,-2.472,-2.4736,-2.4786,-2.48,-2.4821,-2.4856,-2.4875,-2.4899,-2.4929,-2.4949,-2.4977,-2.4995,-2.5035,-2.5058,-2.5082,-2.5106,-2.5113,-2.5127,-2.5133,-2.5125,-2.5123,-2.5135,-2.5136,-2.5146,-2.5146,-2.5146,-2.5146,0,-2.4693,-2.4726,-2.4755,-2.48,-2.4812,-2.4825,-2.4865,-2.488,-2.4906,-2.4931,-2.4939,-2.4979,-2.5008,-2.5041,-2.508,-2.5097,-2.512,-2.5128,-2.5109,-2.5112,-2.5114,-2.5114,-2.5113,-2.5116,-2.5131,-2.5131,-2.5131,0,-2.4685,-2.4699,-2.4747,-2.4763,-2.4784,-2.4809,-2.4828,-2.4864,-2.4883,-2.4923,-2.4934,-2.4966,-2.4993,-2.5038,-2.507,-2.5101,-2.5111,-2.5109,-2.5116,-2.5108,-2.5112,-2.5111,-2.5113,-2.5107,-2.5107,-2.5106,-2.5106,0,-2.4669,-2.4685,-2.4712,-2.4746,-2.4768,-2.4796,-2.4825,-2.4836,-2.4878,-2.4898,-2.4928,-2.495,-2.4991,-2.5022,-2.5058,-2.508,-2.51,-2.5104,-2.5107,-2.5098,-2.5086,-2.5094,-2.5104,-2.5104,-2.5104,-2.5104,-2.5104,-2.5104,-2.4652,-2.4666,-2.4703,-2.4733,-2.4759,-2.4785,-2.4803,-2.4832,-2.4858,-2.4896,-2.4915,-2.4946,-2.4981,-2.5031,-2.5052,-2.5077,-2.5084,-2.5087,-2.5088,-2.5089,-2.5087,-2.5082,-2.5084,-2.5084,-2.5084,-2.5084,-2.5084,0,-2.4638,-2.4663,-2.469,-2.4731,-2.4754,-2.4773,-2.4806,-2.4825,-2.4852,-2.4883,-2.491,-2.4946,-2.4977,-2.5013,-2.5047,-2.506,-2.507,-2.5067,-2.5067,-2.5072,-2.5078,-2.5073,-2.5059,-2.5059,-2.5059,-2.5059,-2.5059,-2.5059,-2.4633,-2.4659,-2.468,-2.472,-2.4746,-2.4777,-2.4795,-2.482,-2.4846,-2.4885,-2.4912,-2.4935,-2.4969,-2.5006,-2.5035,-2.5045,-2.5057,-2.5051,-2.5064,-2.5069,-2.5071,-2.5073,-2.5069,-2.5053,-2.5053,-2.5055,-2.5055,-2.5055]}]]